When you browse on this site, cookies collect data to enhance your experience and personalize the content and advertising you see.
Visit our Privacy Policy to learn more. By continuing to use the site, you agree to this use of cookies and data.
  • In Hungary
  • List of Countries
  • For 7 days
  • Water Temperature
  • Satellite Maps
  • Weather Map
  • News
  • Weather Widgets
  • user-avatar
    Login

    Hourly Weather Ponta Grossa

    Today, 19 January, Saturday

    Time Temperature Precipitation Wind Pressure Humidity
    00:00 +19°C° 0.6 mm 0 mps 680 mmHg 93%
    01:00 +19°C° 0 mm 0 mps 680 mmHg 93%
    02:00 +21°C° 0 mm 1 mps 680 mmHg 93%
    03:00 +21°C° 0 mm 1 mps 679 mmHg 94%
    04:00 +20°C° 0 mm 1 mps 679 mmHg 94%
    05:00 +20°C° 0 mm 1 mps 679 mmHg 94%
    06:00 +20°C° 0 mm 1 mps 679 mmHg 94%
    07:00 +22°C° 0 mm 1 mps 680 mmHg 89%
    08:00 +24°C° 0 mm 2 mps 680 mmHg 84%
    09:00 +26°C° 0 mm 3 mps 681 mmHg 79%
    10:00 +27°C° 0.1 mm 2 mps 681 mmHg 74%
    11:00 +28°C° 0.1 mm 2 mps 681 mmHg 69%
    12:00 +29°C° 0.1 mm 2 mps 681 mmHg 63%
    13:00 +29°C° 0.9 mm 2 mps 680 mmHg 68%
    14:00 +29°C° 0.9 mm 2 mps 680 mmHg 73%
    15:00 +28°C° 0.9 mm 2 mps 680 mmHg 78%
    16:00 +27°C° 1.9 mm 2 mps 680 mmHg 82%
    17:00 +27°C° 1.9 mm 1 mps 679 mmHg 87%
    18:00 +26°C° 1.9 mm 1 mps 679 mmHg 91%
    19:00 +24°C° 2 mm 1 mps 680 mmHg 91%
    20:00 +23°C° 2 mm 1 mps 680 mmHg 91%
    21:00 +22°C° 2 mm 1 mps 680 mmHg 91%
    22:00 +22°C° 0 mm 1 mps 680 mmHg 92%
    23:00 +22°C° 0 mm 1 mps 680 mmHg 93%

    Tomorrow, 20 January, Sunday

    Time Temperature Precipitation Wind Pressure Humidity
    00:00 +21°C° 0 mm 1 mps 680 mmHg 93%
    01:00 +21°C° 0 mm 1 mps 680 mmHg 94%
    02:00 +21°C° 0 mm 1 mps 680 mmHg 95%
    03:00 +19°C° 0 mm 2 mps 679 mmHg 96%
    04:00 +20°C° 0 mm 2 mps 680 mmHg 97%
    05:00 +20°C° 0 mm 2 mps 680 mmHg 97%
    06:00 +20°C° 0 mm 2 mps 680 mmHg 97%
    07:00 +21°C° 0 mm 3 mps 680 mmHg 94%
    08:00 +22°C° 0 mm 3 mps 681 mmHg 90%
    09:00 +24°C° 0 mm 3 mps 682 mmHg 87%
    10:00 +25°C° 1.1 mm 3 mps 682 mmHg 86%
    11:00 +25°C° 1.1 mm 2 mps 681 mmHg 86%
    12:00 +26°C° 1.1 mm 2 mps 681 mmHg 85%
    13:00 +26°C° 2.5 mm 2 mps 681 mmHg 85%
    14:00 +26°C° 2.5 mm 2 mps 681 mmHg 85%
    15:00 +27°C° 2.5 mm 2 mps 681 mmHg 85%
    16:00 +26°C° 3.4 mm 1 mps 681 mmHg 87%
    17:00 +26°C° 3.4 mm 1 mps 680 mmHg 89%
    18:00 +25°C° 3.4 mm 1 mps 680 mmHg 91%
    19:00 +24°C° 2.9 mm 1 mps 680 mmHg 92%
    20:00 +23°C° 2.9 mm 2 mps 681 mmHg 94%
    21:00 +21°C° 2.9 mm 2 mps 681 mmHg 96%
    22:00 +20°C° 0.4 mm 2 mps 681 mmHg 96%
    23:00 +20°C° 0.4 mm 2 mps 681 mmHg 97%

    Day after tomorrow, 21 January, Monday

    Time Temperature Precipitation Wind Pressure Humidity
    00:00 +20°C° 0.4 mm 2 mps 681 mmHg 97%
    01:00 +19°C° 0 mm 2 mps 681 mmHg 97%
    02:00 +20°C° 0 mm 1 mps 680 mmHg 97%
    03:00 +20°C° 0 mm 1 mps 680 mmHg 97%
    04:00 +20°C° 0 mm 1 mps 680 mmHg 97%
    05:00 +20°C° 0 mm 1 mps 680 mmHg 97%
    06:00 +20°C° 0 mm 1 mps 680 mmHg 97%
    07:00 +20°C° 0 mm 2 mps 681 mmHg 92%
    08:00 +23°C° 0 mm 2 mps 682 mmHg 88%
    09:00 +25°C° 0 mm 3 mps 682 mmHg 83%
    10:00 +27°C° 0.1 mm 3 mps 682 mmHg 77%
    11:00 +28°C° 0.1 mm 3 mps 682 mmHg 71%
    12:00 +30°C° 0.1 mm 3 mps 682 mmHg 65%
    13:00 +30°C° 0.2 mm 3 mps 682 mmHg 63%
    14:00 +31°C° 0.2 mm 2 mps 682 mmHg 61%
    15:00 +32°C° 0.2 mm 2 mps 681 mmHg 60%
    16:00 +30°C° 0.9 mm 2 mps 681 mmHg 70%
    17:00 +27°C° 0.9 mm 2 mps 680 mmHg 80%
    18:00 +25°C° 0.9 mm 2 mps 680 mmHg 90%
    19:00 +24°C° 0.3 mm 2 mps 681 mmHg 92%
    20:00 +23°C° 0.3 mm 2 mps 681 mmHg 93%
    21:00 +23°C° 0.3 mm 2 mps 682 mmHg 95%
    22:00 +22°C° 0 mm 1 mps 682 mmHg 95%
    23:00 +22°C° 0 mm 1 mps 682 mmHg 96%

    22 January, Tuesday

    Time Temperature Precipitation Wind Pressure Humidity
    00:00 +22°C° 0 mm 1 mps 682 mmHg 96%
    01:00 +21°C° 0 mm 1 mps 681 mmHg 96%
    02:00 +21°C° 0 mm 1 mps 681 mmHg 96%
    03:00 +21°C° 0 mm 1 mps 680 mmHg 97%
    04:00 +21°C° 0 mm 1 mps 681 mmHg 97%
    05:00 +21°C° 0 mm 1 mps 681 mmHg 97%
    06:00 +20°C° 0 mm 1 mps 681 mmHg 96%
    07:00 +22°C° 0 mm 1 mps 682 mmHg 91%
    08:00 +24°C° 0 mm 1 mps 682 mmHg 85%
    09:00 +26°C° 0 mm 1 mps 683 mmHg 79%
    10:00 +28°C° 0 mm 1 mps 683 mmHg 72%
    11:00 +30°C° 0 mm 1 mps 683 mmHg 65%
    12:00 +31°C° 0 mm 1 mps 683 mmHg 58%
    13:00 +31°C° 0.6 mm 1 mps 682 mmHg 60%
    14:00 +31°C° 0.6 mm 1 mps 682 mmHg 61%
    15:00 +29°C° 0.6 mm 0 mps 681 mmHg 63%
    16:00 +31°C° 0.7 mm 1 mps 681 mmHg 69%
    17:00 +30°C° 0.7 mm 1 mps 681 mmHg 75%
    18:00 +29°C° 0.7 mm 1 mps 681 mmHg 80%
    19:00 +27°C° 0.5 mm 1 mps 681 mmHg 85%
    20:00 +25°C° 0.5 mm 1 mps 681 mmHg 89%
    21:00 +23°C° 0.5 mm 1 mps 681 mmHg 94%
    22:00 +23°C° 0 mm 2 mps 681 mmHg 94%
    23:00 +21°C° 0 mm 2 mps 681 mmHg 95%

    23 January, Wednesday

    Time Temperature Precipitation Wind Pressure Humidity
    00:00 +21°C° 0 mm 2 mps 682 mmHg 96%
    01:00 +22°C° 0 mm 1 mps 681 mmHg 96%
    02:00 +22°C° 0 mm 1 mps 681 mmHg 96%
    03:00 +21°C° 0 mm 1 mps 680 mmHg 96%
    04:00 +21°C° 0 mm 1 mps 681 mmHg 95%
    05:00 +19°C° 0 mm 0 mps 681 mmHg 95%
    06:00 +19°C° 0 mm 0 mps 681 mmHg 95%
    07:00 +21°C° 0 mm 0 mps 682 mmHg 89%
    08:00 +23°C° 0 mm 0 mps 682 mmHg 83%
    09:00 +25°C° 0 mm 0 mps 683 mmHg 76%
    10:00 +26°C° 1.9 mm 0 mps 683 mmHg 73%
    11:00 +27°C° 1.9 mm 0 mps 683 mmHg 69%
    12:00 +28°C° 1.9 mm 0 mps 683 mmHg 66%
    13:00 +28°C° 0 mm 0 mps 682 mmHg 65%
    14:00 +30°C° 0 mm 1 mps 681 mmHg 64%
    15:00 +30°C° 0 mm 1 mps 681 mmHg 62%
    16:00 +30°C° 0.7 mm 1 mps 681 mmHg 69%
    17:00 +29°C° 0.7 mm 1 mps 681 mmHg 75%
    18:00 +28°C° 0.7 mm 1 mps 681 mmHg 81%
    19:00 +26°C° 0.9 mm 1 mps 681 mmHg 84%
    20:00 +25°C° 0.9 mm 1 mps 681 mmHg 87%
    21:00 +23°C° 0.9 mm 1 mps 681 mmHg 90%
    22:00 +23°C° 0 mm 1 mps 681 mmHg 91%
    23:00 +23°C° 0 mm 1 mps 681 mmHg 92%

    24 January, Thursday

    Time Temperature Precipitation Wind Pressure Humidity
    00:00 +22°C° 0 mm 1 mps 681 mmHg 92%
    01:00 +22°C° 0 mm 1 mps 680 mmHg 92%
    02:00 +22°C° 0 mm 1 mps 680 mmHg 92%
    03:00 +22°C° 0 mm 1 mps 679 mmHg 92%
    04:00 +21°C° 0 mm 1 mps 679 mmHg 93%
    05:00 +21°C° 0 mm 1 mps 680 mmHg 93%
    06:00 +21°C° 0 mm 1 mps 680 mmHg 94%
    07:00 +23°C° 0 mm 1 mps 680 mmHg 89%
    08:00 +25°C° 0 mm 1 mps 681 mmHg 83%
    09:00 +26°C° 0 mm 1 mps 682 mmHg 78%
    10:00 +27°C° 1.7 mm 1 mps 681 mmHg 75%
    11:00 +26°C° 1.7 mm 0 mps 681 mmHg 72%
    12:00 +27°C° 1.7 mm 0 mps 681 mmHg 69%
    13:00 +28°C° 0.2 mm 0 mps 681 mmHg 63%
    14:00 +29°C° 0.2 mm 0 mps 680 mmHg 57%
    15:00 +30°C° 0.2 mm 0 mps 680 mmHg 51%
    16:00 +30°C° 0.5 mm 1 mps 680 mmHg 60%
    17:00 +28°C° 0.5 mm 2 mps 679 mmHg 69%
    18:00 +27°C° 0.5 mm 3 mps 679 mmHg 78%
    19:00 +25°C° 1.1 mm 3 mps 680 mmHg 83%
    20:00 +24°C° 1.1 mm 3 mps 680 mmHg 87%
    21:00 +21°C° 1.1 mm 3 mps 680 mmHg 92%
    22:00 +21°C° 2.1 mm 2 mps 680 mmHg 93%
    23:00 +20°C° 2.1 mm 2 mps 681 mmHg 94%
    Show more